Weather History for KMKJ - June, 2014

Change the Weather History Date:

Tuesday, June 10, 2014

  Actual Average (KGEV) Record (KGEV)
Temperature  
Mean Temperature 72 °F -  
Max Temperature 84 °F 76 °F 86 °F (1993)
Min Temperature 62 °F 53 °F 34 °F (1988)
Cooling Degree Days 8    
Growing Degree Days 22 (Base 50)    
Moisture  
Dew Point 64 °F    
Average Humidity 85    
Maximum Humidity 100    
Minimum Humidity 52    
Precipitation  
Precipitation 0.08 in - - ()
Sea Level Pressure  
Sea Level Pressure 30.04 in    
Wind  
Wind Speed 5 mph (WSW)    
Max Wind Speed 15 mph    
Max Gust Speed 24 mph    
Visibility 9 miles    
Events Rain , Thunderstorm    
Averages and records for this station are not official NWS values.
T = Trace of Precipitation, MM = Missing Value Source: NWS Daily Summary

Daily Weather History Graph

Daily Weather History Graph

Search for Another Location

Airport or City:

Trip Planner

Search our weather history database for the weather conditions in past years. The results will help you decide how hot, cold, wet, or windy it might be!

Date:

Astronomy

Jun. 10, 2014 Rise Set
Actual Time 6:05 AM EDT 8:44 PM EDT
Civil Twilight 5:35 AM EDT 9:14 PM EDT
Nautical Twilight 4:56 AM EDT 9:53 PM EDT
Astronomical Twilight 4:14 AM EDT 10:35 PM EDT
Moon 6:11 PM EDT (6/10) 4:06 AM EDT (6/10)
Length of Visible Light 15h 39m
Length of Day
14h 38m
Waxing Gibbous, 92% of the Moon is Illuminated
Jun 10
Waxing Gibbous
Jun 13
Full
Jun 19
Last Quarter
Jun 27
New
Jul 5
First Quarter

Hourly Weather History & Observations

Time (EDT) Temp. Heat Index Dew Point Humidity Pressure Visibility Wind Dir Wind Speed Gust Speed Precip Events Conditions
12:10 AM 64.6 °F - 64.6 °F 100% 30.03 in 7.0 mi Calm Calm - N/A   Scattered Clouds
12:35 AM 63.9 °F - 63.9 °F 100% 30.03 in 7.0 mi Calm Calm - N/A   Clear
1:00 AM 63.7 °F - 63.7 °F 100% 30.03 in 5.0 mi Calm Calm - N/A   Mostly Cloudy
1:15 AM 63.9 °F - 63.9 °F 100% 30.02 in 10.0 mi West 3.5 mph - N/A   Scattered Clouds
1:35 AM 63.0 °F - 63.0 °F 100% 30.02 in 5.0 mi West 3.5 mph - N/A   Clear
1:55 AM 63.0 °F - 63.0 °F 100% 30.02 in 7.0 mi West 5.8 mph - N/A   Scattered Clouds
2:15 AM 63.5 °F - 63.5 °F 100% 30.02 in 10.0 mi WSW 3.5 mph - N/A   Mostly Cloudy
2:35 AM 63.3 °F - 63.3 °F 100% 30.02 in 10.0 mi WSW 4.6 mph - N/A   Scattered Clouds
2:55 AM 63.7 °F - 63.7 °F 100% 30.02 in 10.0 mi West 4.6 mph - N/A   Mostly Cloudy
3:15 AM 63.9 °F - 63.7 °F 99% 30.02 in 10.0 mi West 5.8 mph - N/A   Overcast
3:35 AM 63.7 °F - 63.5 °F 99% 30.02 in 10.0 mi West 5.8 mph - N/A   Overcast
3:55 AM 63.1 °F - 63.1 °F 100% 30.02 in 10.0 mi West 4.6 mph - N/A   Overcast
4:15 AM 63.1 °F - 63.1 °F 100% 30.02 in 10.0 mi West 4.6 mph - N/A   Mostly Cloudy
4:35 AM 63.1 °F - 63.1 °F 100% 30.02 in 10.0 mi WSW 4.6 mph - N/A   Overcast
5:15 AM 63.1 °F - 63.1 °F 100% 30.03 in 10.0 mi WSW 5.8 mph - N/A   Mostly Cloudy
5:35 AM 63.1 °F - 63.1 °F 100% 30.04 in 10.0 mi WSW 5.8 mph - N/A   Scattered Clouds
5:55 AM 62.8 °F - 62.8 °F 100% 30.04 in 5.0 mi West 5.8 mph - N/A   Scattered Clouds
6:15 AM 62.6 °F - 62.6 °F 100% 30.04 in 5.0 mi WSW 4.6 mph - N/A   Overcast
6:35 AM 62.8 °F - 62.8 °F 100% 30.04 in 5.0 mi West 5.8 mph - N/A   Mostly Cloudy
6:55 AM 63.7 °F - 63.7 °F 100% 30.04 in 7.0 mi WSW 3.5 mph - N/A   Mostly Cloudy
7:15 AM 65.1 °F - 64.0 °F 96% 30.03 in 10.0 mi West 6.9 mph - N/A   Overcast
7:35 AM 66.0 °F - 64.2 °F 94% 30.01 in 10.0 mi WNW 5.8 mph - N/A   Scattered Clouds
8:15 AM 68.9 °F - 65.5 °F 89% 30.02 in 10.0 mi West 5.8 mph - N/A   Clear
8:35 AM 68.5 °F - 65.3 °F 89% 30.03 in 10.0 mi West 8.1 mph - N/A   Scattered Clouds
9:15 AM 70.3 °F - 65.7 °F 85% 30.04 in 10.0 mi WSW 5.8 mph - N/A   Clear
9:35 AM 70.3 °F - 65.5 °F 85% 30.05 in 10.0 mi West 6.9 mph - N/A   Clear
10:18 AM 73.4 °F - 64.4 °F 73% 30.05 in 10.0 mi WSW 11.5 mph 21.9 mph N/A   Scattered Clouds
10:35 AM - - - N/A% - - North - - N/A   Unknown
10:55 AM 75.0 °F - 64.2 °F 69% 30.05 in 10.0 mi West 12.7 mph 17.3 mph 0.04 in   Clear
11:30 AM 76.5 °F - 63.3 °F 64% 30.06 in 10.0 mi West 15.0 mph 20.7 mph N/A   Clear
11:38 AM 77.0 °F - 64.4 °F 65% 30.06 in 10.0 mi WSW 8.1 mph - N/A   Clear
11:59 AM 78.8 °F - 64.4 °F 61% 30.06 in 10.0 mi WSW 9.2 mph 18.4 mph N/A   Scattered Clouds
12:15 PM 77.9 °F - 64.0 °F 62% 30.07 in 10.0 mi WSW 10.4 mph 16.1 mph N/A   Scattered Clouds
12:35 PM 78.3 °F - 63.7 °F 61% 30.06 in 10.0 mi WSW 12.7 mph 16.1 mph N/A   Clear
12:55 PM 78.6 °F - 64.0 °F 61% 30.06 in 10.0 mi West 12.7 mph 18.4 mph N/A   Clear
1:55 PM 78.8 °F - 64.0 °F 60% 30.05 in 10.0 mi WSW 6.9 mph - N/A   Mostly Cloudy
2:10 PM 81.7 °F 83.3 °F 64.8 °F 56% 30.05 in 10.0 mi WNW 10.4 mph - N/A   Mostly Cloudy
2:38 PM 80.6 °F 82.7 °F 66.2 °F 61% 30.04 in 10.0 mi WSW 4.6 mph - N/A   Mostly Cloudy
2:56 PM 80.6 °F 82.7 °F 66.2 °F 61% 30.04 in 10.0 mi SW 5.8 mph - N/A   Mostly Cloudy
3:00 PM 82.2 °F 84.4 °F 66.0 °F 58% 30.04 in 10.0 mi SW 8.1 mph - N/A   Mostly Cloudy
3:15 PM 82.6 °F 84.5 °F 65.3 °F 56% 30.03 in 10.0 mi West 9.2 mph 16.1 mph N/A   Mostly Cloudy
3:30 PM 82.6 °F 84.3 °F 65.1 °F 55% 30.03 in 10.0 mi West 15.0 mph - N/A   Scattered Clouds
4:30 PM 83.5 °F 84.9 °F 64.2 °F 52% 30.01 in 10.0 mi West 12.7 mph - N/A   Clear
4:55 PM 83.5 °F 85.1 °F 64.9 °F 53% 30.00 in 10.0 mi West 10.4 mph - N/A   Clear
5:55 PM 83.3 °F 84.8 °F 64.4 °F 53% 30.01 in 10.0 mi ESE 9.2 mph - N/A   Mostly Cloudy
5:56 PM 82.4 °F 83.9 °F 64.4 °F 54% 30.01 in 10.0 mi SE 9.2 mph 16.1 mph N/A   Mostly Cloudy
6:15 PM 75.0 °F - 61.5 °F 63% 30.02 in 10.0 mi SE 4.6 mph 24.2 mph N/A Thunderstorm Overcast
6:57 PM 69.8 °F - 66.2 °F 88% 30.02 in 10.0 mi NW 3.5 mph - N/A Rain , Thunderstorm Light Thunderstorms and Rain
7:16 PM 68.0 °F - 66.2 °F 94% 30.02 in 10.0 mi Calm Calm - N/A Thunderstorm Overcast
7:36 PM 69.8 °F - 66.2 °F 88% 30.02 in 10.0 mi NE 4.6 mph - N/A Thunderstorm Thunderstorm
7:56 PM 69.8 °F - 66.2 °F 88% 30.02 in 10.0 mi ESE 4.6 mph - N/A   Mostly Cloudy
8:16 PM 66.2 °F - 66.2 °F 100% 30.02 in 10.0 mi Calm Calm - N/A Thunderstorm Clear
8:36 PM 68.0 °F - 66.2 °F 94% 30.03 in 10.0 mi Calm Calm - N/A   Clear
8:56 PM 66.2 °F - 66.2 °F 100% 30.06 in 10.0 mi West 9.2 mph - N/A Thunderstorm Thunderstorm
9:15 PM 67.8 °F - 64.0 °F 88% 30.09 in 10.0 mi West 12.7 mph - N/A Thunderstorm Overcast
9:35 PM 65.1 °F - 63.9 °F 96% 30.10 in 7.0 mi West 11.5 mph 19.6 mph 0.03 in Rain Rain
9:55 PM 64.4 °F - 64.4 °F 100% 30.09 in 10.0 mi West 9.2 mph - 0.04 in Rain Rain
10:15 PM 64.0 °F - 63.9 °F 99% 30.08 in 10.0 mi WSW 6.9 mph - N/A   Scattered Clouds
10:30 PM 63.5 °F - 63.5 °F 100% 30.09 in 10.0 mi WSW 6.9 mph - N/A   Scattered Clouds
10:55 PM 63.5 °F - 63.5 °F 100% 30.08 in 7.0 mi West 8.1 mph - N/A   Scattered Clouds
11:15 PM 64.0 °F - 64.0 °F 100% 30.06 in 10.0 mi Calm Calm - N/A Rain Light Rain
11:35 PM 63.7 °F - 63.7 °F 100% 30.06 in 10.0 mi Calm Calm - N/A   Mostly Cloudy
11:55 PM 63.5 °F - 63.5 °F 100% 30.05 in 3.0 mi Calm Calm - N/A   Scattered Clouds